EW3393 Weather Reports


Display with metric or nautical units.
time (UTC)temp
F
wind
direction
speed
MPH
gust
MPH
rain 1hr
in
rain 24hr
in
rain mn
in
humidity
%
barometer
mb
20260906021830 92 305 11.0 17.0 0.00 0.00 0.00 27 1009.8
20260906021324 92 300 14.0 19.0 0.00 0.00 0.00 27 1009.8
20260906020817 92 293 14.0 19.0 0.00 0.00 0.00 27 1009.9
20260906020329 92 298 11.0 17.0 0.00 0.00 0.00 26 1009.9
20260906015819 93 296 13.0 20.0 0.00 0.00 0.00 26 1009.8
20260906015331 93 290 16.0 20.0 0.00 0.00 0.00 26 1009.9
20260906014824 94 281 12.0 16.0 0.00 0.00 0.00 26 1009.8
20260906014315 94 245 13.0 16.0 0.00 0.00 0.00 25 1009.8
20260906013828 95 298 10.0 14.0 0.00 0.00 0.00 24 1009.9
20260906013324 95 258 8.0 17.0 0.00 0.00 0.00 18 1009.9
20260906012818 95 273 13.0 17.0 0.00 0.00 0.00 23 1009.8
20260906012329 96 247 12.0 19.0 0.00 0.00 0.00 23 1009.9
20260906011822 96 237 12.0 19.0 0.00 0.00 0.00 18 1009.8
20260906011352 96 263 9.0 14.0 0.00 0.00 0.00 23 1009.8
20260906010823 96 250 8.0 15.0 0.00 0.00 0.00 20 1009.9
20260906010314 97 252 9.0 15.0 0.00 0.00 0.00 19 1009.9
20260906005843 97 268 12.0 17.0 0.00 0.00 0.00 22 1009.7
20260906005332 97 276 6.0 18.0 0.00 0.00 0.00 18 1009.8
20260906004823 97 267 11.0 18.0 0.00 0.00 0.00 16 1009.8
20260906004314 98 324 2.0 6.0 0.00 0.00 0.00 15 1010.0
20260906003826 98 232 4.0 9.0 0.00 0.00 0.00 16 1009.8
20260906003322 98 234 6.0 14.0 0.00 0.00 0.00 15 1009.8
20260906002814 98 196 9.0 14.0 0.00 0.00 0.00 16 1009.7
20260906002326 98 187 6.0 9.0 0.00 0.00 0.00 16 1009.8
20260906001820 99 205 6.0 10.0 0.00 0.00 0.00 16 1009.7
20260906001331 99 202 6.0 10.0 0.00 0.00 0.00 16 1009.7
20260906000844 99 160 6.0 13.0 0.00 0.00 0.00 16 1009.7
20260906000314 99 216 7.0 13.0 0.00 0.00 0.00 16 1009.6
20260905235844 99 174 5.0 13.0 0.00 0.00 0.00 16 1009.7
20260905235315 99 199 7.0 13.0 0.00 0.00 0.00 16 1009.7
20260905234827 99 194 8.0 13.0 0.00 0.00 0.00 16 1009.7
20260905234338 99 159 9.0 12.0 0.00 0.00 0.00 15 1009.7
20260905233833 99 153 6.0 12.0 0.00 0.00 0.00 16 1009.7
20260905233323 99 121 5.0 15.0 0.00 0.00 0.00 15 1009.8
20260905232816 100 140 10.0 15.0 0.00 0.00 0.00 14 1009.7
20260905232326 100 186 9.0 14.0 0.00 0.00 0.00 14 1009.7
20260905231820 100 156 11.0 16.0 0.00 0.00 0.00 14 1009.6
20260905231331 100 178 8.0 14.0 0.00 0.00 0.00 14 1009.7
20260905230824 100 157 6.0 11.0 0.00 0.00 0.00 14 1009.7
20260905230316 99 187 8.0 11.0 0.00 0.00 0.00 14 1009.8
20260905225830 99 157 8.0 11.0 0.00 0.00 0.00 14 1009.8
20260905225320 100 124 7.0 11.0 0.00 0.00 0.00 14 1009.8
20260905224813 100 157 7.0 15.0 0.00 0.00 0.00 14 1009.9
20260905224325 100 159 7.0 15.0 0.00 0.00 0.00 14 1009.9
20260905223818 99 168 7.0 14.0 0.00 0.00 0.00 14 1010.0
20260905223329 99 153 7.0 14.0 0.00 0.00 0.00 14 1010.0
20260905222822 99 151 9.0 12.0 0.00 0.00 0.00 14 1010.1
20260905222314 99 165 9.0 12.0 0.00 0.00 0.00 13 1010.1
20260905221831 99 186 6.0 14.0 0.00 0.00 0.00 13 1010.1
20260905221321 99 105 6.0 12.0 0.00 0.00 0.00 14 1010.1
20260905220814 99 144 6.0 10.0 0.00 0.00 0.00 13 1010.2
20260905220346 99 157 5.0 10.0 0.00 0.00 0.00 13 1010.3
20260905215813 99 170 4.0 15.0 0.00 0.00 0.00 13 1010.4
20260905215325 98 138 9.0 15.0 0.00 0.00 0.00 13 1010.4
20260905214818 98 108 8.0 17.0 0.00 0.00 0.00 14 1010.5
20260905214350 97 150 7.0 13.0 0.00 0.00 0.00 13 1010.5
20260905213820 98 60 8.0 13.0 0.00 0.00 0.00 13 1010.5
20260905213352 98 103 7.0 15.0 0.00 0.00 0.00 13 1010.6
20260905212827 98 112 6.0 15.0 0.00 0.00 0.00 13 1010.7
20260905212317 99 108 9.0 15.0 0.00 0.00 0.00 13 1010.7
20260905211830 99 123 2.0 10.0 0.00 0.00 0.00 13 1010.8
20260905211320 99 148 5.0 14.0 0.00 0.00 0.00 13 1010.9
20260905210833 99 119 6.0 14.0 0.00 0.00 0.00 13 1010.8
20260905210323 98 173 6.0 11.0 0.00 0.00 0.00 12 1010.8
20260905205833 99 133 7.0 14.0 0.00 0.00 0.00 12 1010.9
20260905205345 98 149 8.0 14.0 0.00 0.00 0.00 12 1010.9
20260905204817 98 106 5.0 14.0 0.00 0.00 0.00 11 1011.0
20260905204329 98 145 9.0 12.0 0.00 0.00 0.00 12 1011.0
20260905203846 98 144 6.0 11.0 0.00 0.00 0.00 12 1011.1
20260905203315 98 221 5.0 11.0 0.00 0.00 0.00 12 1011.1
20260905202828 98 130 5.0 13.0 0.00 0.00 0.00 12 1011.1
20260905202320 98 126 8.0 13.0 0.00 0.00 0.00 12 1011.2
20260905201813 97 161 6.0 9.0 0.00 0.00 0.00 13 1011.2
20260905201325 97 165 3.0 7.0 0.00 0.00 0.00 12 1011.3
20260905200819 97 129 1.0 13.0 0.00 0.00 0.00 11 1011.3
20260905200330 98 181 5.0 13.0 0.00 0.00 0.00 12 1011.4
20260905195820 97 199 4.0 9.0 0.00 0.00 0.00 11 1011.4
20260905195315 97 146 5.0 9.0 0.00 0.00 0.00 11 1011.6
20260905194848 97 124 3.0 8.0 0.00 0.00 0.00 11 1011.6
20260905194317 97 225 4.0 8.0 0.00 0.00 0.00 11 1011.7
20260905193851 97 171 1.0 11.0 0.00 0.00 0.00 11 1011.7
20260905193321 97 173 7.0 11.0 0.00 0.00 0.00 12 1011.8
20260905192813 97 109 3.0 9.0 0.00 0.00 0.00 11 1011.9
20260905192325 96 186 5.0 11.0 0.00 0.00 0.00 11 1011.9
20260905191819 96 155 6.0 11.0 0.00 0.00 0.00 11 1012.0
20260905191350 96 171 6.0 11.0 0.00 0.00 0.00 11 1012.0
20260905190822 96 169 8.0 10.0 0.00 0.00 0.00 11 1012.1
20260905190317 95 167 6.0 10.0 0.00 0.00 0.00 12 1012.1
20260905185827 95 161 7.0 10.0 0.00 0.00 0.00 11 1012.2
20260905185318 95 206 7.0 11.0 0.00 0.00 0.00 11 1012.2
20260905184851 95 196 4.0 8.0 0.00 0.00 0.00 11 1012.2
20260905184340 96 153 2.0 6.0 0.00 0.00 0.00 11 1012.2
20260905183852 95 110 2.0 6.0 0.00 0.00 0.00 11 1012.2
20260905183322 95 336 2.0 6.0 0.00 0.00 0.00 10 1012.2
20260905182815 94 337 3.0 4.0 0.00 0.00 0.00 11 1012.3
20260905182327 93 212 1.0 7.0 0.00 0.00 0.00 11 1012.4
20260905181839 93 234 2.0 8.0 0.00 0.00 0.00 11 1012.5
20260905181327 93 243 3.0 8.0 0.00 0.00 0.00 10 1012.5
20260905180824 93 278 5.0 7.0 0.00 0.00 0.00 10 1012.5
20260905180314 93 223 3.0 9.0 0.00 0.00 0.00 10 1012.5
20260905175823 93 243 6.0 11.0 0.00 0.00 0.00 10 1012.5
20260905175313 93 293 4.0 11.0 0.00 0.00 0.00 10 1012.5
20260905174826 93 232 7.0 11.0 0.00 0.00 0.00 10 1012.5
20260905174318 93 255 8.0 11.0 0.00 0.00 0.00 11 1012.4
20260905173831 92 238 5.0 11.0 0.00 0.00 0.00 11 1012.3
20260905173323 93 302 3.0 11.0 0.00 0.00 0.00 11 1012.3
20260905172819 93 298 6.0 11.0 0.00 0.00 0.00 11 1012.3
20260905172350 92 273 5.0 10.0 0.00 0.00 0.00 11 1012.2
20260905171820 92 317 4.0 11.0 0.00 0.00 0.00 12 1012.3
20260905171331 92 234 6.0 12.0 0.00 0.00 0.00 12 1012.3
20260905170825 92 322 7.0 12.0 0.00 0.00 0.00 12 1012.3
20260905170317 91 311 8.0 12.0 0.00 0.00 0.00 12 1012.2
20260905165827 91 253 7.0 13.0 0.00 0.00 0.00 13 1012.3
20260905165319 90 318 9.0 13.0 0.00 0.00 0.00 13 1012.3
20260905164831 90 321 8.0 11.0 0.00 0.00 0.00 13 1012.3
20260905164322 89 325 6.0 16.0 0.00 0.00 0.00 13 1012.2
20260905163819 89 254 8.0 16.0 0.00 0.00 0.00 13 1012.2
20260905163329 89 276 10.0 12.0 0.00 0.00 0.00 13 1012.3
20260905162821 89 292 8.0 13.0 0.00 0.00 0.00 14 1012.2
20260905162352 89 311 9.0 14.0 0.00 0.00 0.00 14 1012.2
20260905161823 88 307 10.0 14.0 0.00 0.00 0.00 14 1012.1
20260905161335 88 311 10.0 14.0 0.00 0.00 0.00 14 1012.1
20260905160826 88 275 10.0 14.0 0.00 0.00 0.00 14 1012.0
20260905160337 87 294 11.0 14.0 0.00 0.00 0.00 14 1012.0
20260905155825 87 311 11.0 15.0 0.00 0.00 0.00 14 1012.0
20260905155317 87 288 11.0 17.0 0.00 0.00 0.00 14 1012.0
20260905154815 87 302 12.0 17.0 0.00 0.00 0.00 14 1012.0
20260905154325 87 301 9.0 16.0 0.00 0.00 0.00 14 1012.0
20260905153816 87 318 13.0 16.0 0.00 0.00 0.00 14 1011.9
20260905153327 86 286 11.0 14.0 0.00 0.00 0.00 15 1011.8
20260905152819 86 269 10.0 14.0 0.00 0.00 0.00 15 1011.7
20260905152350 85 279 9.0 12.0 0.00 0.00 0.00 16 1011.7
20260905151842 85 265 5.0 13.0 0.00 0.00 0.00 16 1011.7
20260905151352 84 286 11.0 13.0 0.00 0.00 0.00 16 1011.7
20260905150844 84 288 9.0 12.0 0.00 0.00 0.00 16 1011.7
20260905150315 84 274 9.0 11.0 0.00 0.00 0.00 17 1011.7
20260905145826 83 297 9.0 13.0 0.00 0.00 0.00 17 1011.7
20260905145323 83 297 9.0 12.0 0.00 0.00 0.00 16 1011.8
20260905144816 83 295 7.0 12.0 0.00 0.00 0.00 16 1011.7
20260905144328 83 263 10.0 12.0 0.00 0.00 0.00 16 1011.8
20260905143842 82 280 8.0 11.0 0.00 0.00 0.00 17 1011.7
20260905143312 81 288 7.0 10.0 0.00 0.00 0.00 17 1011.7
20260905142827 80 294 7.0 10.0 0.00 0.00 0.00 17 1011.6
20260905142319 79 295 5.0 10.0 0.00 0.00 0.00 18 1011.6
20260905141852 79 286 8.0 10.0 0.00 0.00 0.00 18 1011.6
20260905141322 78 309 8.0 12.0 0.00 0.00 0.00 18 1011.5
20260905140820 77 299 9.0 12.0 0.00 0.00 0.00 19 1011.4
20260905140331 77 288 9.0 12.0 0.00 0.00 0.00 20 1011.4
20260905135820 75 263 9.0 12.0 0.00 0.00 0.00 21 1011.4
20260905135331 74 278 9.0 11.0 0.00 0.00 0.00 23 1011.2
20260905134823 74 272 9.0 11.0 0.00 0.00 0.00 23 1011.2
20260905134354 74 280 9.0 11.0 0.00 0.00 0.00 24 1011.3
20260905133824 73 281 8.0 10.0 0.00 0.00 0.00 25 1011.4
20260905133316 73 286 8.0 10.0 0.00 0.00 0.00 25 1011.3
20260905132849 73 288 8.0 9.0 0.00 0.00 0.00 25 1011.3
20260905132319 73 288 8.0 10.0 0.00 0.00 0.00 25 1011.3
20260905131852 73 261 7.0 10.0 0.00 0.00 0.00 25 1011.2
20260905131343 73 259 8.0 10.0 0.00 0.00 0.00 25 1011.1
20260905130839 74 269 8.0 10.0 0.00 0.00 0.00 25 1011.1
20260905130349 74 289 8.0 11.0 0.00 0.00 0.00 25 1010.9
20260905125818 73 271 10.0 11.0 0.00 0.00 0.00 25 1010.9
20260905125330 73 269 9.0 11.0 0.00 0.00 0.00 25 1010.7
20260905124823 74 288 10.0 11.0 0.00 0.00 0.00 25 1010.7
20260905124313 74 264 9.0 11.0 0.00 0.00 0.00 25 1010.7
20260905123846 74 280 8.0 11.0 0.00 0.00 0.00 24 1010.6
20260905123316 75 283 9.0 12.0 0.00 0.00 0.00 24 1010.6
20260905122828 75 271 10.0 13.0 0.00 0.00 0.00 23 1010.6
20260905122319 76 270 9.0 13.0 0.00 0.00 0.00 23 1010.6
20260905121816 76 272 11.0 14.0 0.00 0.00 0.00 23 1010.5
20260905121327 76 291 12.0 15.0 0.00 0.00 0.00 23 1010.5
20260905120820 76 288 12.0 15.0 0.00 0.00 0.00 23 1010.5
20260905120332 76 284 10.0 15.0 0.00 0.00 0.00 23 1010.5
20260905115841 77 302 11.0 16.0 0.00 0.00 0.00 23 1010.4
20260905115352 77 282 12.0 16.0 0.00 0.00 0.00 22 1010.4
20260905114823 76 292 11.0 13.0 0.00 0.00 0.00 21 1010.4
20260905114315 75 287 10.0 13.0 0.00 0.00 0.00 22 1010.4
20260905113826 74 265 9.0 12.0 0.00 0.00 0.00 23 1010.4
20260905113317 74 272 9.0 12.0 0.00 0.00 0.00 23 1010.4
20260905112814 74 281 10.0 12.0 0.00 0.00 0.00 24 1010.4
20260905112345 74 278 10.0 12.0 0.00 0.00 0.00 24 1010.5
20260905111816 74 273 10.0 12.0 0.00 0.00 0.00 24 1010.5
20260905111329 74 269 8.0 12.0 0.00 0.00 0.00 24 1010.5
20260905110842 74 296 10.0 12.0 0.00 0.00 0.00 24 1010.5
20260905110353 74 299 10.0 13.0 0.00 0.00 0.00 24 1010.6
20260905105820 75 271 10.0 13.0 0.00 0.00 0.00 24 1010.5
20260905105331 74 290 10.0 14.0 0.00 0.00 0.00 24 1010.6
20260905104825 74 299 12.0 14.0 0.00 0.00 0.00 24 1010.5
20260905104316 74 290 9.0 12.0 0.00 0.00 0.00 24 1010.5
20260905103828 74 277 10.0 13.0 0.00 0.00 0.00 24 1010.5
20260905103319 75 272 11.0 14.0 0.00 0.00 0.00 24 1010.5
20260905102836 75 278 11.0 14.0 0.00 0.00 0.00 25 1010.5
20260905102326 74 277 12.0 14.0 0.00 0.00 0.00 25 1010.5
20260905101819 74 302 8.0 11.0 0.00 0.00 0.00 25 1010.6
20260905101350 74 304 9.0 12.0 0.00 0.00 0.00 25 1010.6
20260905100822 74 306 9.0 12.0 0.00 0.00 0.00 25 1010.6
20260905100313 75 308 8.0 12.0 0.00 0.00 0.00 25 1010.6
20260905095822 75 330 10.0 13.0 0.00 0.00 0.00 24 1010.6
20260905095314 75 312 11.0 14.0 0.00 0.00 0.00 24 1010.6
20260905094827 75 288 11.0 14.0 0.00 0.00 0.00 24 1010.6
20260905094317 75 279 10.0 15.0 0.00 0.00 0.00 24 1010.6
20260905093814 76 296 11.0 15.0 0.00 0.00 0.00 24 1010.5
20260905093326 76 277 13.0 16.0 0.00 0.00 0.00 24 1010.5
20260905092820 76 269 12.0 18.0 0.00 0.00 0.00 23 1010.5
20260905092352 77 252 14.0 18.0 0.00 0.00 0.00 23 1010.5
20260905091824 77 257 13.0 17.0 0.00 0.00 0.00 23 1010.5
20260905091317 77 254 13.0 18.0 0.00 0.00 0.00 23 1010.5
20260905090850 77 260 14.0 17.0 0.00 0.00 0.00 23 1010.5
20260905090321 77 261 11.0 14.0 0.00 0.00 0.00 22 1010.4
20260905085831 77 280 11.0 14.0 0.00 0.00 0.00 22 1010.5
20260905085322 78 269 11.0 15.0 0.00 0.00 0.00 21 1010.5
20260905084819 79 288 10.0 15.0 0.00 0.00 0.00 20 1010.6
20260905084330 79 279 11.0 14.0 0.00 0.00 0.00 20 1010.6
20260905083822 79 291 10.0 13.0 0.00 0.00 0.00 21 1010.6
20260905083313 79 299 10.0 13.0 0.00 0.00 0.00 21 1010.6
20260905082827 79 325 10.0 14.0 0.00 0.00 0.00 20 1010.7
20260905082317 79 304 11.0 14.0 0.00 0.00 0.00 21 1010.7
20260905081851 79 303 9.0 15.0 0.00 0.00 0.00 21 1010.7
20260905081320 79 310 12.0 17.0 0.00 0.00 0.00 21 1010.7
20260905080853 78 296 13.0 17.0 0.00 0.00 0.00 22 1010.7
20260905080322 78 288 11.0 13.0 0.00 0.00 0.00 22 1010.7
20260905075816 78 282 11.0 15.0 0.00 0.00 0.00 22 1010.7
20260905075327 79 302 10.0 15.0 0.00 0.00 0.00 23 1010.7
20260905074819 78 272 10.0 13.0 0.00 0.00 0.00 24 1010.8
20260905074330 78 300 10.0 12.0 0.00 0.00 0.00 24 1010.8
20260905073822 78 286 10.0 12.0 0.00 0.00 0.00 25 1010.7
20260905073313 78 302 9.0 11.0 0.00 0.00 0.00 25 1010.7
20260905072847 78 295 9.0 11.0 0.00 0.00 0.00 25 1010.8
20260905072316 78 284 8.0 10.0 0.00 0.00 0.00 25 1010.6
20260905071828 79 300 8.0 14.0 0.00 0.00 0.00 25 1010.6
20260905071323 79 287 11.0 16.0 0.00 0.00 0.00 25 1010.5
20260905070836 80 286 12.0 16.0 0.00 0.00 0.00 25 1010.4
20260905070347 80 285 11.0 14.0 0.00 0.00 0.00 25 1010.4
20260905065834 80 273 12.0 14.0 0.00 0.00 0.00 26 1010.4
20260905065324 80 294 9.0 16.0 0.00 0.00 0.00 27 1010.4
20260905064818 80 298 14.0 16.0 0.00 0.00 0.00 27 1010.3
20260905064330 80 288 6.0 16.0 0.00 0.00 0.00 28 1010.4
20260905063822 80 292 13.0 16.0 0.00 0.00 0.00 28 1010.3
20260905063332 80 298 8.0 13.0 0.00 0.00 0.00 28 1010.3
20260905062825 80 293 9.0 16.0 0.00 0.00 0.00 28 1010.3
20260905062316 81 303 12.0 16.0 0.00 0.00 0.00 28 1010.3
20260905061849 80 311 11.0 17.0 0.00 0.00 0.00 29 1010.4
20260905061323 81 279 14.0 17.0 0.00 0.00 0.00 29 1010.3
20260905060816 81 305 12.0 16.0 0.00 0.00 0.00 29 1010.2
20260905060327 81 278 11.0 24.0 0.00 0.00 0.00 29 1010.4
20260905055817 81 295 15.0 24.0 0.00 0.00 0.00 29 1010.3
20260905055348 81 296 16.0 23.0 0.00 0.00 0.00 30 1010.1
20260905054819 80 312 13.0 24.0 0.00 0.00 0.00 30 1010.2
20260905054330 81 276 14.0 24.0 0.00 0.00 0.00 30 1010.1
20260905053843 80 290 16.0 20.0 0.00 0.00 0.00 30 1010.1
20260905053313 80 309 15.0 21.0 0.00 0.00 0.00 30 1010.1
20260905052830 80 284 16.0 21.0 0.00 0.00 0.00 30 1010.3
20260905052321 80 275 13.0 19.0 0.00 0.00 0.00 31 1010.3
20260905051814 81 281 15.0 22.0 0.00 0.00 0.00 31 1010.3
20260905051346 81 286 17.0 22.0 0.00 0.00 0.00 31 1010.2
20260905050818 81 300 14.0 20.0 0.00 0.00 0.00 31 1010.2
20260905050330 81 296 15.0 22.0 0.00 0.00 0.00 31 1010.3
20260905045819 81 300 16.0 22.0 0.00 0.00 0.00 31 1010.4
20260905045330 81 306 12.0 19.0 0.00 0.00 0.00 31 1010.4
20260905044824 81 290 14.0 19.0 0.00 0.00 0.00 30 1010.4
20260905044319 81 300 14.0 18.0 0.00 0.00 0.00 30 1010.4
20260905043832 81 297 14.0 20.0 0.00 0.00 0.00 29 1010.2
20260905043323 81 298 13.0 21.0 0.00 0.00 0.00 29 1010.1
20260905042815 81 291 14.0 23.0 0.00 0.00 0.00 29 1010.1
20260905042326 81 318 16.0 24.0 0.00 0.00 0.00 28 1010.0
20260905041818 81 307 17.0 24.0 0.00 0.00 0.00 28 1010.0
20260905041328 82 298 13.0 21.0 0.00 0.00 0.00 26 1010.0
20260905040821 82 318 15.0 21.0 0.00 0.00 0.00 26 1009.9
20260905040331 82 296 16.0 22.0 0.00 0.00 0.00 26 1009.9
20260905035820 82 288 17.0 23.0 0.00 0.00 0.00 24 1009.8
20260905035316 82 320 15.0 22.0 0.00 0.00 0.00 24 1009.8
20260905034848 83 295 18.0 28.0 0.00 0.00 0.00 24 1009.7
20260905034317 83 283 20.0 28.0 0.00 0.00 0.00 24 1009.6
20260905033829 83 296 17.0 26.0 0.00 0.00 0.00 23 1009.5
20260905033319 83 296 20.0 27.0 0.00 0.00 0.00 23 1009.3
20260905032831 83 301 19.0 28.0 0.00 0.00 0.00 23 1009.4
20260905032323 83 266 23.0 28.0 0.00 0.00 0.00 23 1009.2
20260905031817 84 298 18.0 29.0 0.00 0.00 0.00 22 1009.1
20260905031330 84 259 21.0 29.0 0.00 0.00 0.00 22 1009.0
20260905030827 84 272 20.0 27.0 0.00 0.00 0.00 21 1008.9
20260905030320 85 261 16.0 27.0 0.00 0.00 0.00 21 1008.8
20260905025829 85 269 19.0 26.0 0.00 0.00 0.00 21 1008.8
20260905025321 85 262 18.0 25.0 0.00 0.00 0.00 20 1008.8
20260905024854 86 284 19.0 26.0 0.00 0.00 0.00 20 1008.6
20260905024323 86 270 18.0 23.0 0.00 0.00 0.00 20 1008.7
20260905023816 86 265 12.0 18.0 0.00 0.00 0.00 19 1008.7
20260905023347 87 285 15.0 18.0 0.00 0.00 0.00 19 1008.6
20260905022840 87 273 13.0 19.0 0.00 0.00 0.00 19 1008.6
20260905022330 87 283 14.0 20.0 0.00 0.00 0.00 19 1008.6